Weather History for Ocala, FL

Change the Weather History Date:

Thursday, July 18, 2013

  Actual Average Record
Temperature  
Mean Temperature 81 °F -  
Max Temperature 89 °F 88 °F 95 °F (2007)
Min Temperature 73 °F 70 °F 69 °F (1996)
Cooling Degree Days 16    
Growing Degree Days 31 (Base 50)    
Moisture  
Dew Point 69 °F    
Average Humidity 77    
Maximum Humidity 88    
Minimum Humidity 49    
Precipitation  
Precipitation 0.01 in - - ()
Sea Level Pressure  
Sea Level Pressure 30.11 in    
Wind  
Wind Speed 1 mph (SE)    
Max Wind Speed 12 mph    
Max Gust Speed -    
Visibility 10 miles    
Events Rain    
Averages and records for this station are not official NWS values.
T = Trace of Precipitation, MM = Missing Value Source: NWS Daily Summary

Daily Weather History Graph

Daily Weather History Graph

Search for Another Location

Airport:

Trip Planner

Search our weather history database for the weather conditions in past years. The results will help you decide how hot, cold, wet, or windy it might be!

Date:

Astronomy

Jul. 18, 2013 Rise Set
Actual Time 6:41 AM EDT 8:28 PM EDT
Civil Twilight 6:15 AM EDT 8:54 PM EDT
Nautical Twilight 5:43 AM EDT 9:26 PM EDT
Astronomical Twilight 5:09 AM EDT 10:00 PM EDT
Moon 4:26 PM EDT (7/18) 2:26 AM EDT (7/18)
Length of Visible Light 14h 39m
Length of Day
13h 46m
Waxing Gibbous, 77% of the Moon is Illuminated
Jul 18
Waxing Gibbous
Jul 22
Full
Jul 29
Last Quarter
Aug 6
New
Aug 14
First Quarter

Hourly Weather History & Observations

Time (EDT) Temp. Heat Index Dew Point Humidity Pressure Visibility Wind Dir Wind Speed Gust Speed Precip Events Conditions
12:15 AM 75.2 °F - 68.0 °F 78% 30.14 in 10.0 mi Calm Calm - N/A   Clear
12:35 AM 75.2 °F - 68.0 °F 78% 30.14 in 10.0 mi Calm Calm - N/A   Clear
12:55 AM 75.2 °F - 68.0 °F 78% 30.13 in 10.0 mi Calm Calm - N/A   Clear
1:15 AM 75.2 °F - 68.0 °F 78% 30.13 in 10.0 mi Calm Calm - N/A   Clear
1:35 AM 75.2 °F - 68.0 °F 78% 30.13 in 10.0 mi Calm Calm - N/A   Clear
1:55 AM 75.2 °F - 68.0 °F 78% 30.13 in 10.0 mi Calm Calm - N/A   Clear
2:15 AM 75.2 °F - 69.8 °F 83% 30.13 in 10.0 mi Calm Calm - N/A   Clear
2:35 AM 75.2 °F - 69.8 °F 83% 30.13 in 10.0 mi Calm Calm - N/A   Clear
2:55 AM 75.2 °F - 69.8 °F 83% 30.12 in 10.0 mi Calm Calm - N/A   Clear
3:15 AM 75.2 °F - 69.8 °F 83% 30.12 in 10.0 mi Calm Calm - N/A   Clear
3:35 AM 75.2 °F - 69.8 °F 83% 30.12 in 10.0 mi Calm Calm - N/A   Clear
3:55 AM 73.4 °F - 69.8 °F 88% 30.12 in 10.0 mi North 3.5 mph - N/A   Clear
4:15 AM 73.4 °F - 69.8 °F 88% 30.11 in 10.0 mi Calm Calm - N/A   Clear
4:35 AM 73.4 °F - 69.8 °F 88% 30.11 in 10.0 mi Calm Calm - N/A   Clear
4:55 AM 73.4 °F - 69.8 °F 88% 30.11 in 10.0 mi Calm Calm - N/A   Clear
5:15 AM 73.4 °F - 69.8 °F 88% 30.11 in 10.0 mi Calm Calm - N/A   Clear
5:35 AM 73.4 °F - 68.0 °F 83% 30.11 in 10.0 mi Calm Calm - N/A   Clear
5:55 AM 73.4 °F - 68.0 °F 83% 30.11 in 10.0 mi Calm Calm - N/A   Clear
6:15 AM 73.4 °F - 68.0 °F 83% 30.11 in 10.0 mi ENE 3.5 mph - N/A   Clear
6:35 AM 73.4 °F - 68.0 °F 83% 30.11 in 10.0 mi Calm Calm - N/A   Clear
6:50 AM 73.4 °F - 68.0 °F 83% 30.11 in 10.0 mi Calm Calm - N/A   Partly Cloudy
7:50 AM 75.2 °F - 69.8 °F 83% 30.12 in 10.0 mi Calm Calm - N/A   Partly Cloudy
8:50 AM 77.0 °F - 69.8 °F 78% 30.15 in 10.0 mi East 2.3 mph - N/A   Partly Cloudy
9:50 AM 77.0 °F - 69.8 °F 78% 30.14 in 10.0 mi Calm Calm - N/A   Partly Cloudy
10:50 AM 80.6 °F 83.9 °F 69.8 °F 70% 30.14 in 10.0 mi East 4.6 mph - N/A   Scattered Clouds
11:50 AM 82.4 °F 86.3 °F 69.8 °F 66% 30.14 in 10.0 mi East 4.6 mph - N/A   Scattered Clouds
12:50 PM 84.2 °F 88.4 °F 69.8 °F 62% 30.13 in 10.0 mi SSE 5.8 mph - N/A   Scattered Clouds
1:50 PM 87.8 °F 92.6 °F 69.8 °F 55% 30.11 in 10.0 mi WSW 4.6 mph - N/A   Scattered Clouds
2:50 PM 87.8 °F 92.6 °F 69.8 °F 55% 30.10 in 10.0 mi East 5.8 mph - N/A   Mostly Cloudy
3:50 PM 89.6 °F 93.4 °F 68.0 °F 49% 30.06 in 10.0 mi SE 11.5 mph - N/A   Scattered Clouds
4:50 PM 87.8 °F 91.4 °F 68.0 °F 52% 30.05 in 10.0 mi ESE 4.6 mph - N/A   Mostly Cloudy
5:50 PM 82.4 °F 86.3 °F 69.8 °F 66% 30.06 in 7.0 mi SE 6.9 mph - N/A Rain Light Rain
6:50 PM 75.2 °F - 69.8 °F 83% 30.06 in 10.0 mi ESE 4.6 mph - N/A   Mostly Cloudy
7:55 PM 78.8 °F - 68.0 °F 69% 30.08 in 10.0 mi Calm Calm - 0.01 in   Overcast
8:15 PM 78.8 °F - 69.8 °F 74% 30.08 in 10.0 mi East 3.5 mph - N/A   Overcast
8:35 PM 77.0 °F - 69.8 °F 78% 30.09 in 10.0 mi Calm Calm - N/A   Overcast
8:55 PM 77.0 °F - 69.8 °F 78% 30.08 in 10.0 mi Calm Calm - N/A   Overcast
9:15 PM 77.0 °F - 69.8 °F 78% 30.08 in 10.0 mi Calm Calm - N/A   Mostly Cloudy
9:35 PM 77.0 °F - 69.8 °F 78% 30.09 in 10.0 mi Calm Calm - N/A   Clear
9:55 PM 75.2 °F - 68.0 °F 78% 30.10 in 10.0 mi Calm Calm - N/A   Clear
10:15 PM 75.2 °F - 68.0 °F 78% 30.10 in 10.0 mi Calm Calm - N/A   Partly Cloudy
10:35 PM 75.2 °F - 68.0 °F 78% 30.11 in 10.0 mi Calm Calm - N/A   Partly Cloudy
10:55 PM 75.2 °F - 69.8 °F 83% 30.11 in 10.0 mi South 6.9 mph - N/A   Partly Cloudy
11:15 PM 75.2 °F - 68.0 °F 78% 30.11 in 10.0 mi SSW 4.6 mph - N/A   Scattered Clouds
11:35 PM 73.4 °F - 68.0 °F 83% 30.11 in 10.0 mi South 3.5 mph - N/A   Mostly Cloudy
11:55 PM 73.4 °F - 68.0 °F 83% 30.12 in 10.0 mi South 3.5 mph - N/A   Partly Cloudy